Regional Weather Roundup
Issued by NWS

Home | Current Version | Previous Version | Text Only | Print | Product List | Glossary On
Versions: 1 2 3 4 5 6 7 8 9 10 11 12 13 14 15 16 17 18 19 20 21 22 23 24 25 26 27 28 29 30 31 32 33 34 35 36 37 38 39 40 41 42 43 44 45 46 47 48 49 50
000
ASUS46 KPQR 211110
RWROR

OREGON REGIONAL WEATHER ROUNDUP
NATIONAL WEATHER SERVICE PORTLAND OR
300 AM PST SUN DEC 21 2014

NOTE: "FAIR" INDICATES FEW OR NO CLOUDS BELOW 12,000 FEET WITH
NO SIGNIFICANT WEATHER AND/OR OBSTRUCTIONS TO VISIBILITY.

ORZ001>013-211200-
NORTHWEST OREGON


CITY           SKY/WX    TMP DP  RH WIND       PRES   REMARKS
ASTORIA        CLOUDY    55  51  86 W16G24    29.85R
NEWPORT        CLOUDY    55  55 100 SW13G22   29.95R FOG
PORTLAND       CLOUDY    56  49  77 SW8       29.86R
VANCOUVER WA   CLOUDY    56  47  71 CALM      29.85R
SCAPPOOSE      CLOUDY    54  49  83 NE8       29.83R
HILLSBORO      CLOUDY    55  49  80 SW9       29.84R
AURORA         LGT RAIN  55  54  96 SW10G17   29.87R
MCMINNVILLE    LGT RAIN  55  52  89 S7        29.88R
SALEM          LGT RAIN  57  53  86 SW10      29.89R
CORVALLIS      CLOUDY    57  54  88 W8        29.94R
EUGENE         LGT RAIN  57  54  89 S10       29.97R
$$

ORZ021-028-211200-
SOUTHWEST OREGON


CITY           SKY/WX    TMP DP  RH WIND       PRES   REMARKS
NORTH BEND     CLOUDY    57  57 100 W16G22    30.06R
BROOKINGS      HVY RAIN  57  57 100 W8        30.15R VSB 1/4
ROSEBURG       LGT RAIN  57  54  89 CALM      30.03R FOG
SEXTON SUMMIT  LGT RAIN  47  47 100 SW13G20   30.07R VSB 3/4
MEDFORD        RAIN      51  50  96 NE6       30.05R FOG
$$

ORZ014>016-041-211200-
COLUMBIA GORGE


CITY           SKY/WX    TMP DP  RH WIND       PRES   REMARKS
TROUTDALE      CLOUDY    58  50  75 SW12      29.84R
THE DALLES     CLOUDY    57  47  69 W16G23    29.74R
$$

ORZ029>031-041-044-049-050-061>064-502-503-505>511-211200-
EASTERN OREGON


CITY           SKY/WX    TMP DP  RH WIND       PRES   REMARKS
REDMOND        LGT RAIN  47  46  97 SE5       29.86R
BEND           CLOUDY    48  45  87 SW8       29.88R
PRINEVILLE     CLOUDY    50  46  87 SW9       29.87R
KLAMATH FALLS  LGT RAIN  49  44  83 SW16      30.04S
LAKEVIEW       CLOUDY    41  37  87 S21       30.07S
HERMISTON      CLOUDY    58  48  69 SW29G39   29.64R
PENDLETON      LGT RAIN  56  48  74 W29G45    29.67R
JOHN DAY       LGT RAIN  48  44  85 SW15G23   29.83R
MEACHAM        CLOUDY    48  44  86 W9        29.70R
LA GRANDE      CLOUDY    52  39  62 W17G38    29.68R
BAKER CITY     LGT RAIN  41  38  89 N5        29.75
BURNS          LGT RAIN  42  39  89 SW6       29.91R
ROME             N/A     49  39  68 S16       29.90F
ONTARIO        CLOUDY    43  40  89 NE5       29.82F
$$



USA.gov is the U.S. government's official web portal to all federal, state and local government web resources and services.